Location: Franzen
(48.6167°N, 15.3833°E)
Time: 18:58:24
(UTC+00:00)

ARIANE 5 R/B - Pass Details

Date: 30 July 2021
Orbit: 620 x 656 km, 98.1° (Epoch: 11 September)

Event Time Altitude Azimuth Distance (km) Brightness Sun altitude
Exits shadow 20:50:05 19° 193° (SSW) 1,541 4.2 -16.7°
Maximum altitude 20:53:02 47° 261° (W) 860 3.4 -16.9°
Drops below altitude 10° 20:57:21 10° 335° (NNW) 2,046 6.5 -17.3°
Sets 20:59:38 0° 342° (NNW) 2,955 7.6 -17.5°
